Location: Helsinki
(60.1699°N, 24.9384°E)
Time: 14:35:52
(UTC+02:00)

Transit 4A - Pass Details

Date: 01 November 2020
Orbit: 862 x 982 km, 66.8° (Epoch: 26 November)

Event Time Altitude Azimuth Distance (km) Brightness Sun altitude
Rises 19:45:49 0° 291° (WNW) 3,681 12.4 -25.3°
Reaches altitude 10° 19:48:29 10° 296° (WNW) 2,740 11.3 -25.7°
Maximum altitude 19:54:44 50° 12° (NNE) 1,234 8.5 -26.4°
Enters shadow 19:55:57 45° 45° (NE) 1,322 8.4 -26.5°
Drops below altitude 10° 20:00:59 10° 88° (E) 2,733 - -27.1°
Sets 20:03:38 0° 93° (E) 3,671 - -27.5°
